Main page
Satellite images Climate Cyclones Lightning AirportsFAQ Languages Contact Newsletter About
Weather : Europe Africa North America South America Asia Australia-Oceania Others

nanning-cn, Nanning, Nanning Wuxu International Airport

59431

latitude: , longitude: China, elevation: 22-49N m


METAR: ZGNN 140400Z 02003MPS 6000 -RA FEW005 SCT010 OVC026 10/08 Q1028 NOSIG